Weather History for Winter Haven, FL

Change the Weather History Date:

Friday, March 29, 2013

  Actual Average Record
Temperature  
Mean Temperature 60 °F -  
Max Temperature 73 °F 82 °F 93 °F (1949)
Min Temperature 46 °F 59 °F 41 °F (1955)
Degree Days  
Heating Degree Days 6    
Growing Degree Days 10 (Base 50)    
Moisture  
Dew Point 37 °F    
Average Humidity 48    
Maximum Humidity 90    
Minimum Humidity 18    
Precipitation  
Precipitation 0.00 in - - ()
Sea Level Pressure  
Sea Level Pressure 30.29 in    
Wind  
Wind Speed 3 mph (ENE)    
Max Wind Speed 14 mph    
Max Gust Speed -    
Visibility 10 miles    
Events      
Averages and records for this station are not official NWS values.
T = Trace of Precipitation, MM = Missing Value Source: NWS Daily Summary

Daily Weather History Graph

Daily Weather History Graph

Search for Another Location

Airport:

Trip Planner

Search our weather history database for the weather conditions in past years. The results will help you decide how hot, cold, wet, or windy it might be!

Date:

Astronomy

Mar. 29, 2013 Rise Set
Actual Time 7:20 AM EDT 7:43 PM EDT
Civil Twilight 6:56 AM EDT 8:06 PM EDT
Nautical Twilight 6:29 AM EDT 8:34 PM EDT
Astronomical Twilight 6:01 AM EDT 9:02 PM EDT
Moon 10:24 PM EDT (3/29) 8:43 AM EDT (3/29)
Length of Visible Light 13h 10m
Length of Day
12h 22m
Waning Gibbous, 93% of the Moon is Illuminated
Mar 29
Waning Gibbous
Apr 3
Last Quarter
Apr 10
New
Apr 18
First Quarter
Apr 25
Full

Hourly Weather History & Observations

Time (EDT) Temp. Dew Point Humidity Pressure Visibility Wind Dir Wind Speed Gust Speed Precip Events Conditions
12:53 AM 52.0 °F 42.1 °F 69% 30.31 in 10.0 mi Calm Calm - N/A   Clear
1:53 AM 50.0 °F 42.1 °F 74% 30.30 in 10.0 mi Calm Calm - N/A   Clear
2:53 AM 51.1 °F 43.0 °F 74% 30.29 in 10.0 mi Calm Calm - N/A   Clear
3:53 AM 48.9 °F 43.0 °F 80% 30.29 in 10.0 mi Calm Calm - N/A   Clear
4:53 AM 48.9 °F 45.0 °F 86% 30.28 in 10.0 mi Calm Calm - N/A   Clear
5:53 AM 46.9 °F 44.1 °F 90% 30.29 in 10.0 mi Calm Calm - N/A   Clear
6:53 AM 48.0 °F 41.0 °F 77% 30.31 in 10.0 mi North 3.5 mph - N/A   Clear
7:53 AM 48.0 °F 42.1 °F 80% 30.32 in 10.0 mi Calm Calm - N/A   Clear
8:53 AM 55.9 °F 46.0 °F 69% 30.34 in 10.0 mi Calm Calm - N/A   Unknown
9:53 AM 63.0 °F 41.0 °F 45% 30.36 in 10.0 mi East 8.1 mph - N/A   Clear
10:53 AM 66.9 °F 33.1 °F 28% 30.36 in 10.0 mi NE 12.7 mph - N/A   Clear
11:53 AM 70.0 °F 30.9 °F 24% 30.35 in 10.0 mi ENE 13.8 mph - N/A   Clear
12:53 PM 70.0 °F 28.9 °F 22% 30.32 in 10.0 mi ENE 8.1 mph - N/A   Clear
1:53 PM 72.0 °F 28.9 °F 20% 30.30 in 10.0 mi Variable 6.9 mph - N/A   Clear
2:53 PM 72.0 °F 28.9 °F 20% 30.27 in 10.0 mi Calm Calm - N/A   Clear
3:53 PM 73.9 °F 28.0 °F 18% 30.25 in 10.0 mi WNW 6.9 mph - N/A   Clear
4:53 PM 73.0 °F 27.0 °F 18% 30.23 in 10.0 mi ESE 5.8 mph - N/A   Clear
5:53 PM 73.0 °F 28.0 °F 19% 30.22 in 10.0 mi East 3.5 mph - N/A   Clear
6:53 PM 71.1 °F 30.0 °F 22% 30.23 in 10.0 mi East 4.6 mph - N/A   Unknown
7:53 PM 66.9 °F 32.0 °F 27% 30.24 in 10.0 mi East 3.5 mph - N/A   Clear
8:53 PM 62.1 °F 42.1 °F 48% 30.25 in 10.0 mi East 3.5 mph - N/A   Clear
9:53 PM 62.1 °F 41.0 °F 46% 30.27 in 10.0 mi ESE 8.1 mph - N/A   Clear
10:53 PM 59.0 °F 39.9 °F 49% 30.28 in 10.0 mi ESE 4.6 mph - N/A   Clear
11:53 PM 57.9 °F 43.0 °F 58% 30.29 in 10.0 mi Calm Calm - N/A   Clear